Find Local Weather

World > North America > United States > Connecticut

Darien High School, Connecticut Regional Weather

Lat: 41.08N, Lon: 73.49W
Wx Zone: CTZ009
Warning FLW WEATHER ALERT - FLASH FLOOD WATCH (More Info. Click Here) Warning
Feedback
Expires:201807171800;;624472
ASUS41 KOKX 171705
RWROKX

Regional Weather Roundup
National Weather Service New York NY
100 PM EDT TUE JUL 17 2018

Note: "FAIR" indicates few or no clouds below 12,000 feet with no
significant weather and/or obstructions to visibility.


CTZ002-004>006-009-010-012-RIZ004-006-007-MAZ004-011-015-171800-
Southern New England

 In CT
  
CITY           SKY/WX    TMP DP  RH WIND       PRES   REMARKS
Bradley Intl   PTSUNNY   89  74  60 S13       29.76F HX  98           
Hartford       PTSUNNY   88  75  65 S15       29.76F HX  97           
Danbury        PTSUNNY   85  74  69 SW7       29.80F HX  92           
Wtrbury/Oxford PTSUNNY   85  75  72 S10G20    29.82F HX  93           
Norwalk Harbor   N/A     79 N/A N/A S13         N/A                   
Bridgeport     FAIR      83  74  74 S17       29.80F                  
Meriden        FAIR      89  73  59 S13G23    29.79F HX  97           
New Haven      FAIR      84  75  74 S12       29.81F HX  92           
Chester        PTSUNNY   84  75  74 S10G20    29.83F HX  92           
Groton         FAIR      79  73  82 S8        29.83F                  
Willimantic    PTSUNNY   87  75  67 S13       29.81F HX  96           

 In RI
  
CITY           SKY/WX    TMP DP  RH WIND       PRES   REMARKS
Providence     FAIR      88  73  61 S18       29.83F HX  95           
Block Island   CLOUDY    80  73  79 S18       29.86F                  
Westerly       PTSUNNY   82  75  79 S16G26    29.85F                  
 
In MA
  
CITY           SKY/WX    TMP DP  RH WIND       PRES   REMARKS
Boston         PTSUNNY   91  73  55 SW25G31   29.78F HX  99           
Worcester      NOT AVBL                                               
Westfield      CLOUDY    80  68  66 VRB7G17   29.78R                  
Provincetown   CLOUDY    79  73  82 SW18G24   29.85F                  
Nantucket      PTSUNNY   75  71  87 S20       29.89F                  
$$


SKY/WX - Weather  TMP - Temperature  DP - Dewpoint  RH - Relative Humidity
WIND - Wind Direction/Speed PRES - Barometric Pressure